Location: Aulus
(42.7909°N, 1.3399°E)
Time: 12:52:30
(UTC+00:00)

Cosmos 1867 - Pass Details

Date: 19 May 2025
Orbit: 775 x 798 km, 65.0° (Epoch: 11 June)

Event Time Altitude Azimuth Distance (km) Brightness Sun altitude
Rises 21:31:35 0° 326° (NW) 3,310 8.5 -19.5°
Reaches altitude 10° 21:34:02 10° 326° (NNW) 2,375 7.3 -19.7°
Maximum altitude 21:39:31 90° 255° (WSW) 800 3.5 -20.3°
Enters shadow 21:41:24 43° 148° (SSE) 1,109 3.8 -20.5°
